Main page
METAR-TAF:

METAR-TAF

Airports :

Rolla National Airport

Rolla, Missouri, United States

latitude: 38-07-55N, longitude: 091-45-55W, elevation: 1148 ft

Current weather observation

The report was made 57 minutes ago, at 06:53 UTC
Wind 7 mph from the Southeast
Temperature 70°F
Humidity 69%
Pressure 30.03 in. Hg
Visibility: 10 miles
Clear sky

METAR: KVIH 150653Z AUTO 14006KT 10SM CLR 21/15 A3003 RMK AO2 SLP155 T02060150

Time: 02:50 (07:50 UTC)


TAF: missing

Weather observations and forecasts of more than 4000 airports (METAR and TAF reports).

The available stations are represented by yellow and red dots on the map.

Hover mouse over dot to see the name of the station.

Then click to see weather observations and forecasts.

To change the map : click on the green buttons with a black cross to zoom in, on the green button with a dash to zoom out, or on the green arrows for adjacent maps.


METAR-TAF: